Location: The Saddle
(36.8333°N, 80.3417°W)
Time: 21:32:04
(UTC-05:00)

Courier 1B Rocket - All Passes

Search period start: 22 January 2022 00:00
Search period end: 01 February 2022 00:00
Orbit: 920 x 1202 km, 28.2° (Epoch: 22 January)

Date Brightness Start Highest point End Pass type
(mag) Time Alt. Az. Time Alt. Az. Time Alt. Az.
22 Jan - 01:02:48 10° SSW 01:07:07 17° SSE 01:11:16 10° ESE night (unlit)
22 Jan - 02:53:46 10° SW 02:59:57 32° SSE 03:05:46 10° ESE visible
22 Jan - 04:46:39 10° WSW 04:52:55 40° S 04:58:50 10° ESE visible
22 Jan - 06:40:15 10° WSW 06:45:44 29° SSW 06:51:02 10° SE visible
22 Jan - 08:35:51 10° SW 08:38:14 12° SSW 08:40:38 10° S daylight
23 Jan - 00:03:37 10° S 00:06:11 12° SSE 00:08:43 10° SE night (unlit)
23 Jan - 01:52:59 10° SW 01:59:00 28° SSE 02:04:40 10° ESE night (unlit)
23 Jan - 03:45:31 10° WSW 03:51:59 40° S 03:58:02 10° ESE visible
23 Jan - 05:38:56 10° WSW 05:44:54 34° S 05:50:34 10° SE visible
23 Jan - 07:33:25 10° WSW 07:37:31 18° SSW 07:41:31 10° SSE daylight
24 Jan - 00:52:27 10° SSW 00:58:02 23° SSE 01:03:23 10° ESE night (unlit)
24 Jan - 02:44:26 10° WSW 02:51:00 38° S 02:57:09 10° ESE visible
24 Jan - 04:37:41 10° WSW 04:44:00 39° S 04:49:58 10° ESE visible
24 Jan - 06:31:41 10° WSW 06:36:46 24° SSW 06:41:40 10° SSE visible
24 Jan - 23:52:17 10° SSW 23:57:05 18° SSE 00:01:43 10° ESE night (unlit)
25 Jan - 01:43:27 10° SW 01:50:00 34° SSE 01:56:10 10° ESE night (unlit)
25 Jan - 03:36:26 10° WSW 03:43:04 41° S 03:49:15 10° ESE visible
25 Jan - 05:30:11 10° WSW 05:35:57 30° SSW 05:41:26 10° SE visible
25 Jan - 07:25:56 10° SW 07:28:27 12° SSW 07:30:57 10° S daylight
25 Jan - 22:52:52 10° S 22:56:07 13° SSE 22:59:18 10° SE night (unlit)
26 Jan - 00:42:37 10° SW 00:48:59 30° SSE 00:55:02 10° ESE night (unlit)
26 Jan - 02:35:14 10° WSW 02:42:03 41° S 02:48:26 10° ESE visible
26 Jan - 04:28:47 10° WSW 04:35:04 36° SSW 04:40:59 10° SE visible
26 Jan - 06:23:24 10° WSW 06:27:44 18° SSW 06:31:55 10° SSE visible
26 Jan - 23:42:01 10° SSW 23:47:58 24° SSE 23:53:41 10° ESE night (unlit)
27 Jan - 01:34:06 10° WSW 01:41:01 40° S 01:47:31 10° ESE night (unlit)
27 Jan - 03:27:26 10° WSW 03:34:07 40° S 03:40:22 10° ESE visible
27 Jan - 05:21:33 10° WSW 05:26:57 24° SSW 05:32:04 10° SSE visible
27 Jan - 22:41:50 10° SSW 22:46:57 19° SSE 22:51:59 10° ESE night (unlit)
28 Jan - 00:33:05 10° SW 00:39:56 36° SSE 00:46:28 10° ESE night (unlit)
28 Jan - 02:26:08 10° WSW 02:33:06 43° S 02:39:37 10° ESE night (unlit)
28 Jan - 04:19:58 10° WSW 04:26:05 31° SSW 04:31:50 10° SE visible
28 Jan - 06:15:46 10° SW 06:18:38 13° SSW 06:21:26 10° S visible
28 Jan - 21:42:21 10° S 21:45:59 14° SSE 21:49:34 10° ESE night (unlit)
28 Jan - 23:32:15 10° SW 23:38:52 31° SSE 23:45:15 10° ESE night (unlit)
29 Jan - 01:24:54 10° WSW 01:32:01 43° S 01:38:44 10° ESE night (unlit)
29 Jan - 03:18:30 10° WSW 03:25:08 37° SSW 03:31:22 10° SE visible
29 Jan - 05:13:12 10° WSW 05:17:51 19° SSW 05:22:20 10° SSE visible
29 Jan - 22:31:41 10° SSW 22:37:48 25° SSE 22:43:49 10° ESE night (unlit)
30 Jan - 00:23:46 10° WSW 00:30:54 41° S 00:37:44 10° ESE night (unlit)
30 Jan - 02:17:07 10° WSW 02:24:07 41° S 02:30:42 10° ESE night (unlit)
30 Jan - 04:11:18 10° WSW 04:17:02 25° SSW 04:22:27 10° SSE visible
30 Jan - 21:31:31 10° SSW 21:36:47 20° SSE 21:42:03 10° ESE visible
30 Jan - 23:22:46 10° SW 23:29:47 37° SSE 23:36:36 10° ESE night (unlit)
31 Jan - 01:15:48 10° WSW 01:23:01 44° S 01:29:52 10° ESE night (unlit)
31 Jan - 03:09:39 10° WSW 03:16:06 32° SSW 03:22:11 10° SE visible
31 Jan - 05:05:25 10° WSW 05:08:43 14° SSW 05:11:55 10° S visible
31 Jan - 20:32:04 10° S 20:35:49 14° SSE 20:39:35 10° ESE visible
31 Jan - 22:21:58 10° SW 22:28:41 32° SSE 22:35:19 10° ESE night (unlit)
